Location: �couen
(49.0206°N, 2.3831°E)
Time: 07:26:20
(UTC+00:00)

USA 215 - Pass Details

Date: 16 October 2021
Orbit: 1099 x 1109 km, 123.0° (Epoch: 20 November)

Event Time Altitude Azimuth Distance (km) Brightness Sun altitude
Exits shadow 17:54:55 - 59° (ENE) 3,150 5.1 -10.0°
Reaches altitude 10° 17:55:25 10° 58° (ENE) 2,964 5.0 -10.1°
Maximum altitude 18:01:41 51° 345° (NNW) 1,358 3.9 -11.1°
Drops below altitude 10° 18:07:58 10° 272° (W) 2,966 7.1 -12.1°
Sets 18:10:31 0° 268° (W) 3,924 8.3 -12.6°
